Location: Ciserano
(45.5833°N, 9.6000°E)
Time: 13:06:37
(UTC+00:00)

ATLAS 3B R/B - Pass Details

Date: 29 November 2020
Orbit: 1013 x 1182 km, 63.8° (Epoch: 08 January)

Event Time Altitude Azimuth Distance (km) Brightness Sun altitude
Exits shadow 05:17:52 15° 312° (NW) 2,577 4.2 -13.9°
Maximum altitude 05:23:32 53° 241° (WSW) 1,347 3.0 -12.9°
Drops below altitude 10° 05:30:29 10° 167° (SSE) 3,029 5.5 -11.8°
Sets 05:33:17 0° 163° (SSE) 4,006 6.3 -11.3°
